WIF2EY ENMS-ENBO

Flight info

Callsign WIF2EY
Flight time 0h 33m
Altitude 13000
Route RANUM
Aircraft DH8A/M-SDFGR/S

Departure

Time 2026-05-08 16:39
Airport Mosjøen Airport, Kjærstad (ENMS)

Arrival

Time 2026-05-08 17:13
Airport Bodø Airport (ENBO)
Time Latitude Longitude Altitude Speed Heading
2026-05-08 16:37 65.78362 13.21723 235 ft 0 kts 127°
2026-05-08 16:37 65.78354 13.21713 237 ft 3 kts 271°
2026-05-08 16:38 65.78399 13.21569 236 ft 14 kts 256°
2026-05-08 16:38 65.78267 13.21608 237 ft 29 kts 153°
2026-05-08 16:38 65.78050 13.21806 247 ft 36 kts 155°
2026-05-08 16:38 65.77976 13.21862 248 ft 6 kts 332°
2026-05-08 16:39 65.78273 13.21606 237 ft 102 kts 341°
2026-05-08 16:39 65.79146 13.20896 360 ft 155 kts 343°
2026-05-08 16:39 65.80289 13.20662 843 ft 177 kts
2026-05-08 16:39 65.81485 13.21864 1185 ft 197 kts 39°
2026-05-08 16:40 65.82444 13.24362 1498 ft 209 kts 49°
2026-05-08 16:40 65.83714 13.26311 1708 ft 226 kts 17°
2026-05-08 16:40 65.85281 13.27075 1976 ft 233 kts 12°
2026-05-08 16:40 65.86862 13.28117 2254 ft 238 kts 20°
2026-05-08 16:41 65.88433 13.29538 2502 ft 243 kts 21°
2026-05-08 16:41 65.90049 13.30744 2859 ft 244 kts 17°
2026-05-08 16:41 65.91679 13.32051 3081 ft 248 kts 21°
2026-05-08 16:42 65.94846 13.34626 3450 ft 233 kts 18°
2026-05-08 16:42 65.96390 13.35856 3599 ft 232 kts 21°
2026-05-08 16:42 65.97909 13.37136 3739 ft 229 kts 19°
2026-05-08 16:42 65.99431 13.38306 3885 ft 229 kts 18°
2026-05-08 16:43 66.00931 13.39533 4004 ft 230 kts 19°
2026-05-08 16:43 66.02457 13.40778 4146 ft 231 kts 18°
2026-05-08 16:43 66.03985 13.41980 4278 ft 227 kts 18°
2026-05-08 16:43 66.05481 13.43222 4430 ft 227 kts 19°
2026-05-08 16:44 66.06991 13.44421 4576 ft 229 kts 18°
2026-05-08 16:44 66.08508 13.45645 4727 ft 230 kts 19°
2026-05-08 16:44 66.10030 13.46897 4882 ft 231 kts 19°
2026-05-08 16:44 66.11564 13.48130 5041 ft 232 kts 18°
2026-05-08 16:45 66.13105 13.49386 5194 ft 233 kts 18°
2026-05-08 16:45 66.14636 13.50630 5393 ft 231 kts 18°
2026-05-08 16:45 66.16145 13.51863 5594 ft 232 kts 18°
2026-05-08 16:45 66.17685 13.53109 5802 ft 234 kts 18°
2026-05-08 16:46 66.19237 13.54387 6009 ft 235 kts 19°
2026-05-08 16:46 66.20788 13.55663 6224 ft 235 kts 18°
2026-05-08 16:46 66.22354 13.56922 6435 ft 238 kts 18°
2026-05-08 16:46 66.23923 13.58231 6645 ft 238 kts 18°
2026-05-08 16:47 66.25507 13.59525 6924 ft 243 kts 18°
2026-05-08 16:47 66.27132 13.60854 7307 ft 247 kts 18°
2026-05-08 16:47 66.28750 13.62205 7703 ft 250 kts 18°
2026-05-08 16:47 66.30413 13.63560 8109 ft 253 kts 18°
2026-05-08 16:48 66.32092 13.64951 8522 ft 255 kts 18°
2026-05-08 16:48 66.33785 13.66354 8933 ft 257 kts 18°
2026-05-08 16:48 66.35489 13.67761 9354 ft 259 kts 18°
2026-05-08 16:48 66.37208 13.69191 9777 ft 261 kts 18°
2026-05-08 16:49 66.38918 13.70608 10190 ft 263 kts 18°
2026-05-08 16:49 66.40662 13.72061 10572 ft 264 kts 17°
2026-05-08 16:49 66.42415 13.73520 10963 ft 265 kts 17°
2026-05-08 16:49 66.44167 13.74979 11354 ft 266 kts 17°
2026-05-08 16:50 66.45924 13.76453 11760 ft 266 kts 17°
2026-05-08 16:50 66.47685 13.77922 12161 ft 267 kts 17°
2026-05-08 16:50 66.49451 13.79399 12558 ft 267 kts 17°
2026-05-08 16:50 66.51220 13.80889 12975 ft 269 kts 16°
2026-05-08 16:51 66.53021 13.82400 13172 ft 278 kts 16°
2026-05-08 16:51 66.54871 13.83955 13216 ft 288 kts 17°
2026-05-08 16:51 66.56798 13.85583 13214 ft 295 kts 17°
2026-05-08 16:51 66.58758 13.87232 13217 ft 299 kts 17°
2026-05-08 16:52 66.60744 13.88922 13224 ft 302 kts 17°
2026-05-08 16:52 66.62759 13.90624 13216 ft 305 kts 17°
2026-05-08 16:52 66.64772 13.92332 13216 ft 306 kts 17°
2026-05-08 16:52 66.66793 13.94063 13217 ft 307 kts 17°
2026-05-08 16:53 66.70848 13.97513 13215 ft 308 kts 17°
2026-05-08 16:53 66.72853 13.99233 13215 ft 308 kts 17°
2026-05-08 16:53 66.74889 14.00955 13223 ft 308 kts 17°
2026-05-08 16:54 66.76916 14.02722 13225 ft 307 kts 17°
2026-05-08 16:54 66.78941 14.04455 13221 ft 307 kts 17°
2026-05-08 16:54 66.80974 14.06177 13219 ft 307 kts 17°
2026-05-08 16:54 66.82990 14.07957 13218 ft 307 kts 17°
2026-05-08 16:55 66.85020 14.09708 13214 ft 307 kts 17°
2026-05-08 16:55 66.87045 14.11443 13215 ft 307 kts 17°
2026-05-08 16:55 66.89075 14.13134 13217 ft 306 kts 13°
2026-05-08 16:55 66.91150 14.14344 13218 ft 304 kts 10°
2026-05-08 16:56 66.93194 14.15459 13207 ft 292 kts 10°
2026-05-08 16:56 66.95110 14.16683 12777 ft 279 kts 13°
2026-05-08 16:56 66.96936 14.17886 12187 ft 270 kts 11°
2026-05-08 16:56 66.98749 14.18914 11590 ft 264 kts 10°
2026-05-08 16:57 67.00515 14.20046 11006 ft 259 kts 12°
2026-05-08 16:57 67.02243 14.21163 10421 ft 254 kts 11°
2026-05-08 16:57 67.03952 14.22156 9838 ft 250 kts 11°
2026-05-08 16:57 67.05087 14.22888 9417 ft 248 kts 12°
2026-05-08 16:58 67.07288 14.24287 8612 ft 244 kts 11°
2026-05-08 16:58 67.08931 14.25285 8026 ft 241 kts 12°
2026-05-08 16:58 67.10003 14.25984 7646 ft 239 kts 12°
2026-05-08 16:58 67.11619 14.26584 7055 ft 232 kts 352°
2026-05-08 16:59 67.13096 14.25243 6473 ft 223 kts 320°
2026-05-08 16:59 67.14029 14.22218 5870 ft 215 kts 288°
2026-05-08 16:59 67.14250 14.18493 5298 ft 209 kts 265°
2026-05-08 16:59 67.14126 14.14801 4733 ft 207 kts 264°
2026-05-08 17:00 67.14158 14.11098 4162 ft 207 kts 272°
2026-05-08 17:00 67.14305 14.07399 3610 ft 211 kts 272°
2026-05-08 17:00 67.14400 14.03537 3078 ft 220 kts 269°
2026-05-08 17:00 67.14475 13.99565 2555 ft 225 kts 271°
2026-05-08 17:01 67.14598 13.95528 2099 ft 228 kts 272°
2026-05-08 17:01 67.14688 13.91430 2011 ft 226 kts 270°
2026-05-08 17:01 67.14775 13.87527 1991 ft 217 kts 271°
2026-05-08 17:01 67.14892 13.83701 1978 ft 212 kts 272°
2026-05-08 17:02 67.15037 13.79959 1970 ft 209 kts 274°
2026-05-08 17:02 67.15210 13.76254 1970 ft 207 kts 275°
2026-05-08 17:02 67.15411 13.72581 1975 ft 206 kts 278°
2026-05-08 17:02 67.15684 13.68988 1977 ft 201 kts 271°
2026-05-08 17:03 67.15835 13.65421 1971 ft 200 kts 272°
2026-05-08 17:03 67.16083 13.61893 1971 ft 201 kts 280°
2026-05-08 17:03 67.16371 13.58401 1993 ft 196 kts 276°
2026-05-08 17:03 67.16595 13.54888 1971 ft 200 kts 271°
2026-05-08 17:04 67.16704 13.51381 1977 ft 197 kts 277°
2026-05-08 17:04 67.16809 13.47878 1973 ft 196 kts 270°
2026-05-08 17:04 67.17008 13.44388 1972 ft 198 kts 278°
2026-05-08 17:04 67.17311 13.40955 1973 ft 200 kts 280°
2026-05-08 17:05 67.17535 13.37510 2088 ft 189 kts 287°
2026-05-08 17:05 67.18654 13.36002 1715 ft 239 kts 17°
2026-05-08 17:05 67.19854 13.38837 1710 ft 245 kts 71°
2026-05-08 17:05 67.20183 13.43105 1936 ft 239 kts 86°
2026-05-08 17:06 67.20373 13.47351 2293 ft 234 kts 85°
2026-05-08 17:06 67.20516 13.51491 2611 ft 236 kts 91°
2026-05-08 17:06 67.20492 13.55587 3055 ft 230 kts 97°
2026-05-08 17:06 67.20499 13.59785 3394 ft 230 kts 89°
2026-05-08 17:07 67.20529 13.64022 3425 ft 246 kts 95°
2026-05-08 17:07 67.20523 13.68438 3157 ft 239 kts 86°
2026-05-08 17:07 67.20943 13.72471 2936 ft 231 kts 74°
2026-05-08 17:07 67.21471 13.76507 2624 ft 247 kts 73°
2026-05-08 17:08 67.22029 13.80715 2107 ft 239 kts 72°
2026-05-08 17:08 67.22541 13.84572 1680 ft 215 kts 74°
2026-05-08 17:08 67.22912 13.88278 1638 ft 212 kts 79°
2026-05-08 17:08 67.23187 13.92022 1629 ft 213 kts 83°
2026-05-08 17:09 67.23476 13.95817 1668 ft 218 kts 80°
2026-05-08 17:09 67.23796 13.99598 1708 ft 216 kts 80°
2026-05-08 17:09 67.24128 14.03311 1722 ft 203 kts 78°
2026-05-08 17:09 67.24465 14.06733 1636 ft 197 kts 77°
2026-05-08 17:10 67.24812 14.10084 1579 ft 192 kts 81°
2026-05-08 17:10 67.25019 14.13487 1405 ft 187 kts 85°
2026-05-08 17:10 67.25220 14.16766 1212 ft 184 kts 79°
2026-05-08 17:10 67.25514 14.19967 933 ft 175 kts 79°
2026-05-08 17:11 67.25765 14.22930 677 ft 161 kts 78°
2026-05-08 17:11 67.26000 14.25642 509 ft 149 kts 77°
2026-05-08 17:11 67.26216 14.28195 366 ft 142 kts 77°
2026-05-08 17:11 67.26428 14.30652 219 ft 138 kts 78°
2026-05-08 17:12 67.26632 14.33060 85 ft 135 kts 78°
2026-05-08 17:12 67.26816 14.35266 36 ft 116 kts 78°
2026-05-08 17:12 67.26964 14.37021 41 ft 85 kts 78°
2026-05-08 17:12 67.27070 14.38286 46 ft 56 kts 78°
2026-05-08 17:13 67.27143 14.39153 41 ft 42 kts 77°
2026-05-08 17:13 67.27177 14.39669 52 ft 8 kts 15°
2026-05-08 17:13 67.27178 14.39587 56 ft 4 kts 254°
2026-05-08 17:13 67.27157 14.39339 51 ft 26 kts 257°
2026-05-08 17:14 67.27106 14.38726 49 ft 42 kts 258°
2026-05-08 17:14 67.27161 14.38214 49 ft 30 kts 269°
2026-05-08 17:14 67.27140 14.37658 45 ft 31 kts 258°
2026-05-08 17:14 67.27110 14.37193 45 ft 19 kts 275°
2026-05-08 17:15 67.27146 14.36977 45 ft 7 kts 346°
2026-05-08 17:15 67.27189 14.36939 43 ft 0 kts 296°